INTELSAT 904 (IS-904)

Last updated on Sat Nov 01 2025 00:02:45 GMT+0000 (Coordinated Universal Time)

1 27380U 02007A 25304.35650029 -.00000210 00000+0 00000+0 0 9995 2 27380 6.3442 71.9191 0001581 119.3606 305.5288 1.00270756 49473
UTC large
Height (km)
Speed (km/s)
/
Latitude / Longitude
Inclination (degrees)
Orbital Period (minutes)
Azimuth
Elevation
Range (km)
Doppler Factor

Next 0 passes for location: London (51.5072 / 0.1276)

Sorry there are no passes over London.